{"data":{"norad_id":53698,"intl_designator":"2022-106A","name":"YAOGAN-33 02","alt_names":[],"object_type":"PAYLOAD","status":"ACTIVE","operator":null,"country":"PRC","launch_date":"2022-09-02","launch_site_code":"JSC","launch_vehicle":null,"mission":null,"orbit_class":"UNKNOWN","rcs_meters":null,"size_class":null,"mass_kg":null,"dimensions":null,"purposes":[],"wikipedia_slug":null,"has_3d_model":false,"image_url":null,"decayed_at":null,"tle_current":{"epoch":"2026-05-25T05:12:12.897216Z","epoch_age_seconds":56226,"freshness":"FRESH","line1":"1 53698U 22106A   26145.21681594  .00000123  00000+0  36189-4 0  9992","line2":"2 53698  98.1811 153.4244 0001204 181.1975 178.9222 14.58716103198378","mean_motion":14.58716103,"eccentricity":0.0001204,"inclination_deg":98.1811,"raan_deg":153.4244,"arg_perigee_deg":181.1975,"mean_anomaly_deg":178.9222,"bstar":3.6189e-5,"rev_number":19837,"period_min":98.716946843768,"perigee_km":696.47073036711,"apogee_km":698.17450104257,"semimajor_km":7075.4596157048,"source":"CELESTRAK","updated_at":"2026-05-25T13:37:58.333106Z"}}}